Tabellarische Ansicht des 27.8.2022


Die einzelnen Werte des Tages

Uhrzeit Temperatur Luftdruck Luftfeuchte Wind Hi-Wind Taupunkt THW Index Wind Chill Heat Index Solar- strahlung Regen

00:00

20.1 C

1011.2 hpa

84 %

4.8 km/h aus 117

11.3 km/h aus NW

17.3 C

20.9 C

20.1 C

20.9 C

0 W/m

0.00 mm

00:05

20.1 C

1011.2 hpa

84 %

8.0 km/h aus 115

20.9 km/h aus NW

17.3 C

20.9 C

20.1 C

20.9 C

0 W/m

0.00 mm

00:10

20.0 C

1011.2 hpa

84 %

9.7 km/h aus 115

20.9 km/h aus NW

17.2 C

20.8 C

20.0 C

20.8 C

0 W/m

0.00 mm

00:15

19.9 C

1011.2 hpa

84 %

4.8 km/h aus 116

16.1 km/h aus NNW

17.2 C

20.7 C

19.9 C

20.7 C

0 W/m

0.00 mm

00:20

19.9 C

1011.2 hpa

84 %

6.4 km/h aus 116

19.3 km/h aus WNW

17.1 C

20.7 C

19.9 C

20.7 C

0 W/m

0.00 mm

00:25

19.8 C

1011.2 hpa

84 %

3.2 km/h aus 117

9.7 km/h aus WNW

17.0 C

20.6 C

19.8 C

20.6 C

0 W/m

0.00 mm

00:30

19.8 C

1011.3 hpa

84 %

9.7 km/h aus 116

16.1 km/h aus WNW

17.0 C

20.6 C

19.8 C

20.6 C

0 W/m

0.00 mm

00:35

19.7 C

1011.3 hpa

84 %

8.0 km/h aus 115

20.9 km/h aus NW

16.9 C

20.5 C

19.7 C

20.5 C

0 W/m

0.00 mm

00:40

19.7 C

1011.3 hpa

84 %

8.0 km/h aus 116

20.9 km/h aus WNW

16.9 C

20.4 C

19.7 C

20.4 C

0 W/m

0.00 mm

00:45

19.6 C

1011.2 hpa

84 %

6.4 km/h aus 117

16.1 km/h aus NW

16.8 C

20.3 C

19.6 C

20.3 C

0 W/m

0.00 mm

00:50

19.6 C

1011.2 hpa

84 %

6.4 km/h aus 114

20.9 km/h aus WNW

16.8 C

20.3 C

19.6 C

20.3 C

0 W/m

0.00 mm

00:55

19.5 C

1011.2 hpa

84 %

8.0 km/h aus 114

22.5 km/h aus WNW

16.7 C

20.2 C

19.5 C

20.2 C

0 W/m

0.00 mm

01:00

19.5 C

1011.1 hpa

84 %

6.4 km/h aus 116

17.7 km/h aus NW

16.7 C

20.2 C

19.5 C

20.2 C

0 W/m

0.00 mm

01:05

19.5 C

1011.1 hpa

84 %

9.7 km/h aus 117

20.9 km/h aus WNW

16.7 C

20.2 C

19.5 C

20.2 C

0 W/m

0.00 mm

01:10

19.4 C

1011.1 hpa

84 %

8.0 km/h aus 116

20.9 km/h aus WNW

16.7 C

20.2 C

19.4 C

20.2 C

0 W/m

0.00 mm

01:15

19.4 C

1011.1 hpa

84 %

3.2 km/h aus 114

11.3 km/h aus NW

16.7 C

20.2 C

19.4 C

20.2 C

0 W/m

0.00 mm

01:20

19.4 C

1011.1 hpa

85 %

3.2 km/h aus 115

9.7 km/h aus S

16.9 C

20.2 C

19.4 C

20.2 C

0 W/m

0.00 mm

01:25

19.4 C

1011.1 hpa

85 %

4.8 km/h aus 117

11.3 km/h aus NW

16.9 C

20.2 C

19.4 C

20.2 C

0 W/m

0.00 mm

01:30

19.4 C

1011.1 hpa

85 %

1.6 km/h aus 115

11.3 km/h aus NW

16.9 C

20.2 C

19.4 C

20.2 C

0 W/m

0.00 mm

01:35

19.4 C

1011.1 hpa

85 %

8.0 km/h aus 113

17.7 km/h aus WNW

16.8 C

20.1 C

19.4 C

20.1 C

0 W/m

0.00 mm

01:40

19.4 C

1011.1 hpa

85 %

1.6 km/h aus 116

12.9 km/h aus WNW

16.8 C

20.1 C

19.4 C

20.1 C

0 W/m

0.00 mm

01:45

19.3 C

1011.0 hpa

85 %

8.0 km/h aus 116

19.3 km/h aus WSW

16.7 C

20.0 C

19.3 C

20.0 C

0 W/m

0.00 mm

01:50

19.3 C

1011.0 hpa

85 %

8.0 km/h aus 117

17.7 km/h aus WNW

16.7 C

19.9 C

19.3 C

19.9 C

0 W/m

0.00 mm

01:55

19.3 C

1011.0 hpa

85 %

4.8 km/h aus 115

17.7 km/h aus NW

16.7 C

19.9 C

19.3 C

19.9 C

0 W/m

0.00 mm

02:00

19.2 C

1010.8 hpa

85 %

6.4 km/h aus 116

19.3 km/h aus WNW

16.6 C

19.9 C

19.2 C

19.9 C

0 W/m

0.00 mm

02:05

19.2 C

1010.8 hpa

85 %

4.8 km/h aus 117

17.7 km/h aus WNW

16.6 C

19.8 C

19.2 C

19.8 C

0 W/m

0.00 mm

02:10

19.2 C

1010.8 hpa

85 %

8.0 km/h aus 117

17.7 km/h aus S

16.6 C

19.8 C

19.2 C

19.8 C

0 W/m

0.00 mm

02:15

19.2 C

1010.8 hpa

85 %

0.0 km/h aus 86

6.4 km/h aus WNW

16.6 C

19.8 C

19.2 C

19.8 C

0 W/m

0.00 mm

02:20

19.2 C

1010.8 hpa

85 %

4.8 km/h aus 114

14.5 km/h aus NW

16.6 C

19.8 C

19.2 C

19.8 C

0 W/m

0.00 mm

02:25

19.1 C

1010.8 hpa

85 %

3.2 km/h aus 116

9.7 km/h aus WNW

16.5 C

19.7 C

19.1 C

19.7 C

0 W/m

0.00 mm

02:30

19.1 C

1010.7 hpa

86 %

4.8 km/h aus 116

14.5 km/h aus NW

16.7 C

19.8 C

19.1 C

19.8 C

0 W/m

0.00 mm

02:35

19.1 C

1010.7 hpa

86 %

8.0 km/h aus 116

17.7 km/h aus NW

16.7 C

19.7 C

19.1 C

19.7 C

0 W/m

0.00 mm

02:40

19.1 C

1010.7 hpa

86 %

4.8 km/h aus 114

14.5 km/h aus NW

16.7 C

19.7 C

19.1 C

19.7 C

0 W/m

0.00 mm

02:45

18.9 C

1011.0 hpa

86 %

3.2 km/h aus 116

11.3 km/h aus NNW

16.5 C

19.6 C

18.9 C

19.6 C

0 W/m

0.00 mm

02:50

18.9 C

1011.0 hpa

86 %

8.0 km/h aus 117

17.7 km/h aus W

16.5 C

19.6 C

18.9 C

19.6 C

0 W/m

0.00 mm

02:55

18.9 C

1011.0 hpa

86 %

8.0 km/h aus 117

20.9 km/h aus NW

16.5 C

19.5 C

18.9 C

19.5 C

0 W/m

0.00 mm

03:00

18.8 C

1011.0 hpa

86 %

3.2 km/h aus 115

11.3 km/h aus WNW

16.4 C

19.4 C

18.8 C

19.4 C

0 W/m

0.00 mm

03:05

18.8 C

1011.0 hpa

86 %

6.4 km/h aus 115

22.5 km/h aus WNW

16.4 C

19.3 C

18.8 C

19.3 C

0 W/m

0.00 mm

03:10

18.7 C

1011.0 hpa

86 %

8.0 km/h aus 117

25.7 km/h aus S

16.3 C

19.2 C

18.7 C

19.2 C

0 W/m

0.00 mm

03:15

18.6 C

1011.0 hpa

85 %

8.0 km/h aus 116

19.3 km/h aus S

16.0 C

19.1 C

18.6 C

19.1 C

0 W/m

0.00 mm

03:20

18.5 C

1011.0 hpa

85 %

9.7 km/h aus 116

22.5 km/h aus NW

15.9 C

19.0 C

18.5 C

19.0 C

0 W/m

0.00 mm

03:25

18.5 C

1011.0 hpa

85 %

6.4 km/h aus 114

16.1 km/h aus WNW

15.9 C

19.0 C

18.5 C

19.0 C

0 W/m

0.00 mm

03:30

18.5 C

1011.1 hpa

85 %

4.8 km/h aus 117

19.3 km/h aus NW

15.9 C

19.0 C

18.5 C

19.0 C

0 W/m

0.00 mm

03:35

18.4 C

1011.1 hpa

85 %

8.0 km/h aus 116

22.5 km/h aus W

15.9 C

18.9 C

18.4 C

18.9 C

0 W/m

0.00 mm

03:40

18.4 C

1011.1 hpa

85 %

4.8 km/h aus 117

16.1 km/h aus WNW

15.9 C

18.9 C

18.4 C

18.9 C

0 W/m

0.00 mm

03:45

18.4 C

1011.1 hpa

85 %

4.8 km/h aus 114

14.5 km/h aus WNW

15.9 C

18.9 C

18.4 C

18.9 C

0 W/m

0.00 mm

03:50

18.4 C

1011.1 hpa

85 %

8.0 km/h aus 116

24.1 km/h aus NW

15.9 C

18.9 C

18.4 C

18.9 C

0 W/m

0.00 mm

03:55

18.4 C

1011.1 hpa

85 %

11.3 km/h aus 117

24.1 km/h aus WNW

15.8 C

18.8 C

18.4 C

18.8 C

0 W/m

0.00 mm

04:00

18.3 C

1011.0 hpa

85 %

3.2 km/h aus 116

11.3 km/h aus WNW

15.8 C

18.8 C

18.3 C

18.8 C

0 W/m

0.00 mm

04:05

18.3 C

1011.0 hpa

85 %

8.0 km/h aus 116

20.9 km/h aus WNW

15.8 C

18.8 C

18.3 C

18.8 C

0 W/m

0.00 mm

04:10

18.3 C

1011.0 hpa

85 %

6.4 km/h aus 116

17.7 km/h aus S

15.8 C

18.8 C

18.3 C

18.8 C

0 W/m

0.00 mm

04:15

18.3 C

1011.1 hpa

85 %

8.0 km/h aus 116

19.3 km/h aus WNW

15.7 C

18.7 C

18.3 C

18.7 C

0 W/m

0.00 mm

04:20

18.3 C

1011.1 hpa

85 %

4.8 km/h aus 117

17.7 km/h aus WNW

15.7 C

18.7 C

18.3 C

18.7 C

0 W/m

0.00 mm

04:25

18.3 C

1011.1 hpa

85 %

4.8 km/h aus 116

17.7 km/h aus NW

15.7 C

18.7 C

18.3 C

18.7 C

0 W/m

0.00 mm

04:30

18.2 C

1011.1 hpa

85 %

3.2 km/h aus 115

20.9 km/h aus WNW

15.7 C

18.7 C

18.2 C

18.7 C

0 W/m

0.00 mm

04:35

18.2 C

1011.1 hpa

85 %

6.4 km/h aus 116

16.1 km/h aus S

15.7 C

18.7 C

18.2 C

18.7 C

0 W/m

0.00 mm

04:40

18.2 C

1011.1 hpa

85 %

6.4 km/h aus 117

16.1 km/h aus NW

15.7 C

18.7 C

18.2 C

18.7 C

0 W/m

0.00 mm

04:45

18.2 C

1011.1 hpa

85 %

3.2 km/h aus 116

16.1 km/h aus NW

15.7 C

18.7 C

18.2 C

18.7 C

0 W/m

0.00 mm

04:50

18.2 C

1011.1 hpa

85 %

4.8 km/h aus 114

17.7 km/h aus NNW

15.6 C

18.6 C

18.2 C

18.6 C

0 W/m

0.00 mm

04:55

18.2 C

1011.1 hpa

85 %

6.4 km/h aus 116

17.7 km/h aus WNW

15.6 C

18.6 C

18.2 C

18.6 C

0 W/m

0.00 mm

05:00

18.1 C

1011.1 hpa

85 %

4.8 km/h aus 117

25.7 km/h aus WNW

15.5 C

18.5 C

18.1 C

18.5 C

0 W/m

0.00 mm

05:05

18.1 C

1011.1 hpa

85 %

9.7 km/h aus 117

19.3 km/h aus NW

15.5 C

18.4 C

18.1 C

18.4 C

0 W/m

0.00 mm

05:10

18.1 C

1011.1 hpa

85 %

3.2 km/h aus 117

17.7 km/h aus NW

15.5 C

18.4 C

18.1 C

18.4 C

0 W/m

0.00 mm

05:15

18.0 C

1011.1 hpa

85 %

6.4 km/h aus 114

17.7 km/h aus NW

15.4 C

18.4 C

18.0 C

18.4 C

0 W/m

0.00 mm

05:20

17.9 C

1011.1 hpa

85 %

4.8 km/h aus 116

19.3 km/h aus W

15.4 C

18.3 C

17.9 C

18.3 C

0 W/m

0.00 mm

05:25

17.9 C

1011.1 hpa

85 %

4.8 km/h aus 117

16.1 km/h aus NW

15.4 C

18.3 C

17.9 C

18.3 C

0 W/m

0.00 mm

05:30

17.9 C

1011.1 hpa

85 %

6.4 km/h aus 117

20.9 km/h aus NW

15.4 C

18.3 C

17.9 C

18.3 C

0 W/m

0.00 mm

05:35

17.9 C

1011.1 hpa

85 %

6.4 km/h aus 114

14.5 km/h aus WNW

15.3 C

18.2 C

17.9 C

18.2 C

0 W/m

0.00 mm

05:40

17.9 C

1011.1 hpa

85 %

3.2 km/h aus 116

17.7 km/h aus NW

15.3 C

18.2 C

17.9 C

18.2 C

0 W/m

0.00 mm

05:45

17.9 C

1011.1 hpa

85 %

3.2 km/h aus 116

9.7 km/h aus WNW

15.3 C

18.2 C

17.9 C

18.2 C

0 W/m

0.00 mm

05:50

17.8 C

1011.1 hpa

84 %

4.8 km/h aus 117

14.5 km/h aus S

15.1 C

18.2 C

17.8 C

18.2 C

0 W/m

0.00 mm

05:55

17.8 C

1011.1 hpa

84 %

8.0 km/h aus 115

17.7 km/h aus NW

15.1 C

18.2 C

17.8 C

18.2 C

0 W/m

0.00 mm

06:00

17.8 C

1011.1 hpa

84 %

4.8 km/h aus 114

16.1 km/h aus NW

15.0 C

18.1 C

17.8 C

18.1 C

0 W/m

0.00 mm

06:05

17.8 C

1011.1 hpa

84 %

4.8 km/h aus 117

11.3 km/h aus WNW

15.0 C

18.1 C

17.8 C

18.1 C

0 W/m

0.00 mm

06:10

17.8 C

1011.1 hpa

84 %

3.2 km/h aus 116

14.5 km/h aus WNW

15.0 C

18.1 C

17.8 C

18.1 C

0 W/m

0.00 mm

06:15

17.8 C

1011.1 hpa

84 %

6.4 km/h aus 115

14.5 km/h aus WNW

15.0 C

18.1 C

17.8 C

18.1 C

0 W/m

0.00 mm

06:20

17.8 C

1011.1 hpa

84 %

1.6 km/h aus 114

9.7 km/h aus W

15.0 C

18.1 C

17.8 C

18.1 C

0 W/m

0.00 mm

06:25

17.8 C

1011.1 hpa

84 %

4.8 km/h aus 117

11.3 km/h aus S

15.0 C

18.1 C

17.8 C

18.1 C

0 W/m

0.00 mm

06:30

17.8 C

1011.1 hpa

84 %

6.4 km/h aus 117

17.7 km/h aus S

15.0 C

18.1 C

17.8 C

18.1 C

0 W/m

0.00 mm

06:35

17.7 C

1011.1 hpa

84 %

6.4 km/h aus 117

19.3 km/h aus WNW

15.0 C

18.1 C

17.7 C

18.1 C

0 W/m

0.00 mm

06:40

17.7 C

1011.1 hpa

84 %

4.8 km/h aus 113

11.3 km/h aus WNW

15.0 C

18.1 C

17.7 C

18.1 C

0 W/m

0.00 mm

06:45

17.7 C

1011.3 hpa

84 %

8.0 km/h aus 116

16.1 km/h aus WNW

15.0 C

18.1 C

17.7 C

18.1 C

0 W/m

0.00 mm

06:50

17.7 C

1011.3 hpa

84 %

3.2 km/h aus 117

16.1 km/h aus WNW

15.0 C

18.1 C

17.7 C

18.1 C

3 W/m

0.00 mm

06:55

17.7 C

1011.3 hpa

84 %

1.6 km/h aus 117

11.3 km/h aus WNW

15.0 C

18.1 C

17.7 C

18.1 C

5 W/m

0.00 mm

07:00

17.7 C

1011.2 hpa

84 %

6.4 km/h aus 116

14.5 km/h aus WNW

15.0 C

18.1 C

17.7 C

18.1 C

5 W/m

0.00 mm

07:05

17.7 C

1011.2 hpa

84 %

4.8 km/h aus 114

12.9 km/h aus NW

14.9 C

18.0 C

17.7 C

18.0 C

6 W/m

0.00 mm

07:10

17.7 C

1011.2 hpa

84 %

3.2 km/h aus 116

9.7 km/h aus S

14.9 C

18.0 C

17.7 C

18.0 C

7 W/m

0.00 mm

07:15

17.7 C

1011.3 hpa

84 %

3.2 km/h aus 117

11.3 km/h aus WNW

14.9 C

18.0 C

17.7 C

18.0 C

11 W/m

0.00 mm

07:20

17.7 C

1011.3 hpa

84 %

0.0 km/h aus 117

0.0 km/h aus ---

14.9 C

18.0 C

17.7 C

18.0 C

17 W/m

0.00 mm

07:25

17.7 C

1011.3 hpa

84 %

0.0 km/h aus 112

6.4 km/h aus W

14.9 C

18.0 C

17.7 C

18.0 C

23 W/m

0.00 mm

07:30

17.7 C

1011.1 hpa

84 %

0.0 km/h aus 115

4.8 km/h aus WNW

14.9 C

18.0 C

17.7 C

18.0 C

26 W/m

0.00 mm

07:35

17.7 C

1011.1 hpa

84 %

0.0 km/h aus 117

0.0 km/h aus ---

15.0 C

18.1 C

17.7 C

18.1 C

27 W/m

0.00 mm

07:40

17.7 C

1011.1 hpa

84 %

0.0 km/h aus 117

0.0 km/h aus ---

15.0 C

18.1 C

17.7 C

18.1 C

27 W/m

0.00 mm

07:45

17.7 C

1011.3 hpa

84 %

3.2 km/h aus 116

9.7 km/h aus WSW

15.0 C

18.1 C

17.7 C

18.1 C

32 W/m

0.00 mm

07:50

17.7 C

1011.3 hpa

84 %

4.8 km/h aus 114

11.3 km/h aus WNW

15.0 C

18.1 C

17.7 C

18.1 C

37 W/m

0.00 mm

07:55

17.8 C

1011.3 hpa

84 %

3.2 km/h aus 117

9.7 km/h aus WNW

15.0 C

18.1 C

17.8 C

18.1 C

41 W/m

0.00 mm

08:00

17.8 C

1011.3 hpa

84 %

3.2 km/h aus 117

9.7 km/h aus W

15.0 C

18.1 C

17.8 C

18.1 C

40 W/m

0.00 mm

08:05

17.8 C

1011.3 hpa

84 %

1.6 km/h aus 116

6.4 km/h aus W

15.0 C

18.1 C

17.8 C

18.1 C

40 W/m

0.00 mm

08:10

17.8 C

1011.3 hpa

84 %

1.6 km/h aus 115

6.4 km/h aus WNW

15.1 C

18.2 C

17.8 C

18.2 C

39 W/m

0.00 mm

08:15

17.8 C

1011.4 hpa

84 %

1.6 km/h aus 116

8.0 km/h aus W

15.1 C

18.2 C

17.8 C

18.2 C

32 W/m

0.00 mm

08:20

17.8 C

1011.4 hpa

83 %

1.6 km/h aus 118

9.7 km/h aus W

14.9 C

18.2 C

17.8 C

18.2 C

30 W/m

0.00 mm

08:25

17.8 C

1011.4 hpa

83 %

4.8 km/h aus 117

11.3 km/h aus S

14.9 C

18.2 C

17.8 C

18.2 C

32 W/m

0.00 mm

08:30

17.8 C

1011.5 hpa

83 %

3.2 km/h aus 115

9.7 km/h aus W

14.9 C

18.2 C

17.8 C

18.2 C

34 W/m

0.00 mm

08:35

17.8 C

1011.5 hpa

83 %

4.8 km/h aus 115

9.7 km/h aus WNW

14.9 C

18.2 C

17.8 C

18.2 C

37 W/m

0.00 mm

08:40

17.8 C

1011.5 hpa

83 %

1.6 km/h aus 117

9.7 km/h aus WNW

14.9 C

18.2 C

17.8 C

18.2 C

43 W/m

0.00 mm

08:45

17.8 C

1011.6 hpa

83 %

1.6 km/h aus 117

8.0 km/h aus WNW

14.9 C

18.2 C

17.8 C

18.2 C

47 W/m

0.00 mm

08:50

17.9 C

1011.6 hpa

83 %

3.2 km/h aus 116

9.7 km/h aus NW

15.0 C

18.2 C

17.9 C

18.2 C

42 W/m

0.00 mm

08:55

17.9 C

1011.6 hpa

83 %

1.6 km/h aus 114

9.7 km/h aus W

15.0 C

18.2 C

17.9 C

18.2 C

41 W/m

0.00 mm

09:00

17.8 C

1011.6 hpa

83 %

1.6 km/h aus 117

11.3 km/h aus WNW

14.9 C

18.2 C

17.8 C

18.2 C

43 W/m

0.00 mm

09:05

17.8 C

1011.6 hpa

83 %

3.2 km/h aus 116

11.3 km/h aus NW

14.9 C

18.2 C

17.8 C

18.2 C

44 W/m

0.00 mm

09:10

17.9 C

1011.6 hpa

83 %

1.6 km/h aus 116

9.7 km/h aus WNW

15.0 C

18.2 C

17.9 C

18.2 C

43 W/m

0.00 mm

09:15

17.8 C

1011.9 hpa

83 %

1.6 km/h aus 114

9.7 km/h aus NW

14.9 C

18.2 C

17.8 C

18.2 C

36 W/m

0.00 mm

09:20

17.8 C

1011.9 hpa

82 %

1.6 km/h aus 116

8.0 km/h aus W

14.7 C

18.2 C

17.8 C

18.2 C

31 W/m

0.00 mm

09:25

17.8 C

1011.9 hpa

82 %

1.6 km/h aus 118

8.0 km/h aus S

14.7 C

18.2 C

17.8 C

18.2 C

33 W/m

0.00 mm

09:30

17.8 C

1012.1 hpa

82 %

3.2 km/h aus 116

9.7 km/h aus W

14.7 C

18.2 C

17.8 C

18.2 C

31 W/m

0.00 mm

09:35

17.8 C

1012.1 hpa

82 %

3.2 km/h aus 115

11.3 km/h aus W

14.7 C

18.2 C

17.8 C

18.2 C

32 W/m

0.00 mm

09:40

17.8 C

1012.1 hpa

82 %

1.6 km/h aus 115

8.0 km/h aus W

14.7 C

18.2 C

17.8 C

18.2 C

50 W/m

0.00 mm

09:45

17.8 C

1012.1 hpa

82 %

0.0 km/h aus 117

6.4 km/h aus W

14.7 C

18.2 C

17.8 C

18.2 C

69 W/m

0.00 mm

09:50

17.9 C

1012.1 hpa

82 %

4.8 km/h aus 116

11.3 km/h aus WSW

14.8 C

18.2 C

17.9 C

18.2 C

71 W/m

0.00 mm

09:55

17.9 C

1012.1 hpa

82 %

4.8 km/h aus 117

9.7 km/h aus WNW

14.8 C

18.2 C

17.9 C

18.2 C

73 W/m

0.00 mm

10:00

17.9 C

1012.1 hpa

82 %

4.8 km/h aus 113

14.5 km/h aus W

14.8 C

18.3 C

17.9 C

18.3 C

68 W/m

0.00 mm

10:05

17.9 C

1012.1 hpa

82 %

6.4 km/h aus 116

14.5 km/h aus WNW

14.8 C

18.3 C

17.9 C

18.3 C

71 W/m

0.00 mm

10:10

18.0 C

1012.1 hpa

82 %

4.8 km/h aus 117

11.3 km/h aus WNW

14.9 C

18.3 C

18.0 C

18.3 C

63 W/m

0.00 mm

10:15

18.0 C

1012.2 hpa

82 %

4.8 km/h aus 116

8.0 km/h aus WNW

14.9 C

18.3 C

18.0 C

18.3 C

57 W/m

0.00 mm

10:20

18.0 C

1012.2 hpa

82 %

6.4 km/h aus 115

16.1 km/h aus W

14.9 C

18.3 C

18.0 C

18.3 C

71 W/m

0.00 mm

10:25

18.1 C

1012.2 hpa

82 %

4.8 km/h aus 114

14.5 km/h aus W

14.9 C

18.4 C

18.1 C

18.4 C

113 W/m

0.00 mm

10:30

18.1 C

1012.2 hpa

82 %

3.2 km/h aus 117

9.7 km/h aus W

15.0 C

18.5 C

18.1 C

18.5 C

147 W/m

0.00 mm

10:35

18.2 C

1012.2 hpa

82 %

4.8 km/h aus 117

11.3 km/h aus WNW

15.1 C

18.6 C

18.2 C

18.6 C

168 W/m

0.00 mm

10:40

18.3 C

1012.2 hpa

82 %

6.4 km/h aus 115

16.1 km/h aus WNW

15.2 C

18.7 C

18.3 C

18.7 C

161 W/m

0.00 mm

10:45

18.3 C

1012.2 hpa

82 %

8.0 km/h aus 112

14.5 km/h aus W

15.2 C

18.7 C

18.3 C

18.7 C

177 W/m

0.00 mm

10:50

18.4 C

1012.2 hpa

81 %

4.8 km/h aus 117

11.3 km/h aus WNW

15.1 C

18.9 C

18.4 C

18.9 C

171 W/m

0.00 mm

10:55

18.5 C

1012.2 hpa

81 %

8.0 km/h aus 115

17.7 km/h aus NW

15.2 C

18.9 C

18.5 C

18.9 C

147 W/m

0.00 mm

11:00

18.6 C

1012.2 hpa

81 %

3.2 km/h aus 117

9.7 km/h aus WNW

15.2 C

19.0 C

18.6 C

19.0 C

154 W/m

0.00 mm

11:05

18.6 C

1012.2 hpa

81 %

6.4 km/h aus 115

24.1 km/h aus NW

15.3 C

19.1 C

18.6 C

19.1 C

213 W/m

0.00 mm

11:10

18.7 C

1012.2 hpa

81 %

8.0 km/h aus 116

19.3 km/h aus WNW

15.4 C

19.2 C

18.7 C

19.2 C

298 W/m

0.00 mm

11:15

18.8 C

1012.2 hpa

80 %

6.4 km/h aus 116

16.1 km/h aus WNW

15.3 C

19.3 C

18.8 C

19.3 C

273 W/m

0.00 mm

11:20

19.0 C

1012.2 hpa

80 %

6.4 km/h aus 117

17.7 km/h aus NW

15.5 C

19.5 C

19.0 C

19.5 C

309 W/m

0.00 mm

11:25

19.0 C

1012.2 hpa

80 %

8.0 km/h aus 116

14.5 km/h aus WNW

15.5 C

19.5 C

19.0 C

19.5 C

329 W/m

0.00 mm

11:30

19.1 C

1012.2 hpa

79 %

8.0 km/h aus 115

19.3 km/h aus NW

15.3 C

19.6 C

19.1 C

19.6 C

344 W/m

0.00 mm

11:35

18.9 C

1012.2 hpa

80 %

11.3 km/h aus 117

19.3 km/h aus WNW

15.4 C

19.4 C

18.9 C

19.4 C

297 W/m

0.00 mm

11:40

18.9 C

1012.2 hpa

80 %

6.4 km/h aus 117

17.7 km/h aus WNW

15.4 C

19.4 C

18.9 C

19.4 C

287 W/m

0.00 mm

11:45

19.0 C

1012.2 hpa

80 %

6.4 km/h aus 117

20.9 km/h aus WNW

15.5 C

19.5 C

19.0 C

19.5 C

302 W/m

0.00 mm

11:50

19.3 C

1012.2 hpa

80 %

6.4 km/h aus 114

16.1 km/h aus WNW

15.7 C

19.8 C

19.3 C

19.8 C

352 W/m

0.00 mm

11:55

19.4 C

1012.2 hpa

79 %

8.0 km/h aus 115

16.1 km/h aus WNW

15.7 C

20.0 C

19.4 C

20.0 C

367 W/m

0.00 mm

12:00

19.5 C

1012.1 hpa

78 %

6.4 km/h aus 117

16.1 km/h aus NNW

15.6 C

20.1 C

19.5 C

20.1 C

353 W/m

0.00 mm

12:05

19.9 C

1012.1 hpa

76 %

4.8 km/h aus 117

14.5 km/h aus WNW

15.5 C

20.4 C

19.9 C

20.4 C

423 W/m

0.00 mm

12:10

20.0 C

1012.1 hpa

75 %

6.4 km/h aus 115

17.7 km/h aus NW

15.4 C

20.5 C

20.0 C

20.5 C

310 W/m

0.00 mm

12:15

19.8 C

1012.1 hpa

75 %

6.4 km/h aus 115

16.1 km/h aus WNW

15.3 C

20.3 C

19.8 C

20.3 C

239 W/m

0.00 mm

12:20

19.8 C

1012.1 hpa

75 %

6.4 km/h aus 117

20.9 km/h aus NW

15.3 C

20.3 C

19.8 C

20.3 C

237 W/m

0.00 mm

12:25

19.8 C

1012.1 hpa

75 %

8.0 km/h aus 115

19.3 km/h aus S

15.2 C

20.2 C

19.8 C

20.2 C

202 W/m

0.00 mm

12:30

19.8 C

1012.1 hpa

76 %

6.4 km/h aus 115

19.3 km/h aus WNW

15.4 C

20.3 C

19.8 C

20.3 C

209 W/m

0.00 mm

12:35

19.8 C

1012.1 hpa

75 %

6.4 km/h aus 116

19.3 km/h aus NW

15.2 C

20.2 C

19.8 C

20.2 C

180 W/m

0.00 mm

12:40

19.8 C

1012.1 hpa

76 %

1.6 km/h aus 117

16.1 km/h aus WNW

15.5 C

20.3 C

19.8 C

20.3 C

201 W/m

0.00 mm

12:45

19.8 C

1012.1 hpa

75 %

4.8 km/h aus 117

16.1 km/h aus W

15.2 C

20.2 C

19.8 C

20.2 C

175 W/m

0.00 mm

12:50

19.7 C

1012.1 hpa

75 %

4.8 km/h aus 116

17.7 km/h aus W

15.2 C

20.2 C

19.7 C

20.2 C

128 W/m

0.00 mm

12:55

19.7 C

1012.1 hpa

75 %

4.8 km/h aus 115

16.1 km/h aus WNW

15.1 C

20.1 C

19.7 C

20.1 C

154 W/m

0.00 mm

13:00

19.7 C

1012.2 hpa

76 %

4.8 km/h aus 116

11.3 km/h aus W

15.4 C

20.2 C

19.7 C

20.2 C

135 W/m

0.00 mm

13:05

19.7 C

1012.2 hpa

75 %

8.0 km/h aus 117

17.7 km/h aus W

15.1 C

20.1 C

19.7 C

20.1 C

85 W/m

0.00 mm

13:10

19.7 C

1012.2 hpa

76 %

4.8 km/h aus 117

11.3 km/h aus WSW

15.3 C

20.2 C

19.7 C

20.2 C

89 W/m

0.00 mm

13:15

19.6 C

1012.2 hpa

76 %

6.4 km/h aus 114

14.5 km/h aus WSW

15.3 C

20.1 C

19.6 C

20.1 C

95 W/m

0.00 mm

13:20

19.6 C

1012.2 hpa

77 %

6.4 km/h aus 117

12.9 km/h aus WSW

15.5 C

20.1 C

19.6 C

20.1 C

90 W/m

0.00 mm

13:25

19.6 C

1012.2 hpa

78 %

4.8 km/h aus 116

14.5 km/h aus S

15.6 C

20.1 C

19.6 C

20.1 C

99 W/m

0.00 mm

13:30

19.5 C

1012.2 hpa

78 %

6.4 km/h aus 115

14.5 km/h aus W

15.6 C

20.1 C

19.5 C

20.1 C

120 W/m

0.00 mm

13:35

19.4 C

1012.2 hpa

79 %

1.6 km/h aus 115

6.4 km/h aus W

15.7 C

20.0 C

19.4 C

20.0 C

113 W/m

0.00 mm

13:40

19.4 C

1012.2 hpa

79 %

1.6 km/h aus 114

9.7 km/h aus W

15.7 C

20.0 C

19.4 C

20.0 C

105 W/m

0.00 mm

13:45

19.4 C

1012.3 hpa

79 %

1.6 km/h aus 116

9.7 km/h aus WNW

15.7 C

20.0 C

19.4 C

20.0 C

104 W/m

0.00 mm

13:50

19.4 C

1012.3 hpa

79 %

4.8 km/h aus 117

11.3 km/h aus WSW

15.7 C

20.0 C

19.4 C

20.0 C

112 W/m

0.00 mm

13:55

19.4 C

1012.3 hpa

79 %

3.2 km/h aus 115

11.3 km/h aus W

15.7 C

19.9 C

19.4 C

19.9 C

123 W/m

0.00 mm

14:00

19.4 C

1012.3 hpa

79 %

3.2 km/h aus 114

11.3 km/h aus W

15.7 C

19.9 C

19.4 C

19.9 C

107 W/m

0.00 mm

14:05

19.4 C

1012.3 hpa

79 %

3.2 km/h aus 117

9.7 km/h aus S

15.7 C

19.9 C

19.4 C

19.9 C

98 W/m

0.00 mm

14:10

19.3 C

1012.3 hpa

79 %

4.8 km/h aus 116

9.7 km/h aus W

15.6 C

19.9 C

19.3 C

19.9 C

93 W/m

0.00 mm

14:15

19.4 C

1012.3 hpa

79 %

3.2 km/h aus 116

8.0 km/h aus W

15.7 C

19.9 C

19.4 C

19.9 C

109 W/m

0.00 mm

14:20

19.4 C

1012.3 hpa

79 %

1.6 km/h aus 114

9.7 km/h aus W

15.7 C

19.9 C

19.4 C

19.9 C

118 W/m

0.00 mm

14:25

19.4 C

1012.3 hpa

78 %

3.2 km/h aus 116

9.7 km/h aus W

15.5 C

19.9 C

19.4 C

19.9 C

105 W/m

0.00 mm

14:30

19.4 C

1012.5 hpa

78 %

1.6 km/h aus 116

6.4 km/h aus S

15.5 C

19.9 C

19.4 C

19.9 C

103 W/m

0.00 mm

14:35

19.4 C

1012.5 hpa

78 %

0.0 km/h aus 117

4.8 km/h aus W

15.5 C

19.9 C

19.4 C

19.9 C

105 W/m

0.00 mm

14:40

19.5 C

1012.5 hpa

78 %

0.0 km/h aus 117

0.0 km/h aus ---

15.6 C

20.1 C

19.5 C

20.1 C

124 W/m

0.00 mm

14:45

19.6 C

1012.4 hpa

78 %

0.0 km/h aus 115

0.0 km/h aus ---

15.6 C

20.1 C

19.6 C

20.1 C

147 W/m

0.00 mm

14:50

19.6 C

1012.4 hpa

78 %

1.6 km/h aus 114

6.4 km/h aus W

15.7 C

20.2 C

19.6 C

20.2 C

143 W/m

0.00 mm

14:55

19.7 C

1012.4 hpa

78 %

3.2 km/h aus 117

8.0 km/h aus W

15.7 C

20.2 C

19.7 C

20.2 C

145 W/m

0.00 mm

15:00

19.8 C

1012.3 hpa

78 %

0.0 km/h aus 117

4.8 km/h aus W

15.8 C

20.4 C

19.8 C

20.4 C

155 W/m

0.00 mm

15:05

19.8 C

1012.3 hpa

77 %

1.6 km/h aus 112

6.4 km/h aus W

15.7 C

20.4 C

19.8 C

20.4 C

157 W/m

0.00 mm

15:10

19.9 C

1012.3 hpa

77 %

1.6 km/h aus 117

6.4 km/h aus W

15.7 C

20.4 C

19.9 C

20.4 C

141 W/m

0.00 mm

15:15

19.9 C

1012.3 hpa

76 %

1.6 km/h aus 117

6.4 km/h aus W

15.6 C

20.5 C

19.9 C

20.5 C

139 W/m

0.00 mm

15:20

19.9 C

1012.3 hpa

75 %

1.6 km/h aus 116

8.0 km/h aus WNW

15.4 C

20.4 C

19.9 C

20.4 C

120 W/m

0.00 mm

15:25

19.9 C

1012.3 hpa

75 %

0.0 km/h aus 115

4.8 km/h aus WNW

15.4 C

20.4 C

19.9 C

20.4 C

135 W/m

0.00 mm

15:30

20.0 C

1012.3 hpa

74 %

3.2 km/h aus 116

11.3 km/h aus S

15.2 C

20.4 C

20.0 C

20.4 C

141 W/m

0.00 mm

15:35

20.1 C

1012.3 hpa

73 %

1.6 km/h aus 117

16.1 km/h aus WNW

15.1 C

20.5 C

20.1 C

20.5 C

147 W/m

0.00 mm

15:40

20.1 C

1012.3 hpa

72 %

8.0 km/h aus 117

16.1 km/h aus WNW

14.9 C

20.5 C

20.1 C

20.5 C

168 W/m

0.00 mm

15:45

20.2 C

1012.2 hpa

71 %

1.6 km/h aus 116

8.0 km/h aus WNW

14.8 C

20.6 C

20.2 C

20.6 C

183 W/m

0.00 mm

15:50

20.3 C

1012.2 hpa

70 %

3.2 km/h aus 115

9.7 km/h aus WNW

14.7 C

20.6 C

20.3 C

20.6 C

174 W/m

0.00 mm

15:55

20.6 C

1012.2 hpa

70 %

0.0 km/h aus 116

4.8 km/h aus NW

14.9 C

20.8 C

20.6 C

20.8 C

178 W/m

0.00 mm

16:00

20.7 C

1012.2 hpa

70 %

1.6 km/h aus 116

9.7 km/h aus NW

15.0 C

20.8 C

20.7 C

20.8 C

167 W/m

0.00 mm

16:05

20.7 C

1012.2 hpa

69 %

3.2 km/h aus 116

14.5 km/h aus NNW

14.8 C

20.8 C

20.7 C

20.8 C

144 W/m

0.00 mm

16:10

20.7 C

1012.2 hpa

69 %

4.8 km/h aus 115

16.1 km/h aus NW

14.8 C

20.8 C

20.7 C

20.8 C

166 W/m

0.00 mm

16:15

20.7 C

1012.2 hpa

68 %

6.4 km/h aus 116

16.1 km/h aus WNW

14.5 C

20.7 C

20.7 C

20.7 C

168 W/m

0.00 mm

16:20

20.7 C

1012.2 hpa

68 %

4.8 km/h aus 117

14.5 km/h aus S

14.6 C

20.8 C

20.7 C

20.8 C

179 W/m

0.00 mm

16:25

20.8 C

1012.2 hpa

67 %

6.4 km/h aus 116

19.3 km/h aus S

14.4 C

20.8 C

20.8 C

20.8 C

184 W/m

0.00 mm

16:30

20.8 C

1012.2 hpa

67 %

6.4 km/h aus 114

17.7 km/h aus S

14.4 C

20.8 C

20.8 C

20.8 C

156 W/m

0.00 mm

16:35

20.7 C

1012.2 hpa

67 %

6.4 km/h aus 117

16.1 km/h aus S

14.4 C

20.7 C

20.7 C

20.7 C

131 W/m

0.00 mm

16:40

20.7 C

1012.2 hpa

67 %

3.2 km/h aus 117

8.0 km/h aus WNW

14.4 C

20.7 C

20.7 C

20.7 C

123 W/m

0.00 mm

16:45

20.8 C

1012.2 hpa

68 %

3.2 km/h aus 117

12.9 km/h aus NW

14.7 C

20.9 C

20.8 C

20.9 C

126 W/m

0.00 mm

16:50

20.8 C

1012.2 hpa

68 %

1.6 km/h aus 116

9.7 km/h aus NW

14.7 C

20.9 C

20.8 C

20.9 C

162 W/m

0.00 mm

16:55

20.8 C

1012.2 hpa

67 %

1.6 km/h aus 115

6.4 km/h aus NW

14.5 C

20.8 C

20.8 C

20.8 C

150 W/m

0.00 mm

17:00

20.8 C

1012.2 hpa

68 %

3.2 km/h aus 117

9.7 km/h aus S

14.7 C

20.9 C

20.8 C

20.9 C

170 W/m

0.00 mm

17:05

20.8 C

1012.2 hpa

67 %

1.6 km/h aus 116

9.7 km/h aus NW

14.5 C

20.8 C

20.8 C

20.8 C

148 W/m

0.00 mm

17:10

20.8 C

1012.2 hpa

67 %

1.6 km/h aus 116

8.0 km/h aus WNW

14.4 C

20.8 C

20.8 C

20.8 C

125 W/m

0.00 mm

17:15

20.8 C

1012.3 hpa

67 %

3.2 km/h aus 113

14.5 km/h aus WNW

14.4 C

20.8 C

20.8 C

20.8 C

129 W/m

0.00 mm

17:20

20.8 C

1012.3 hpa

67 %

4.8 km/h aus 116

12.9 km/h aus S

14.4 C

20.8 C

20.8 C

20.8 C

114 W/m

0.00 mm

17:25

20.7 C

1012.3 hpa

67 %

6.4 km/h aus 116

17.7 km/h aus S

14.4 C

20.7 C

20.7 C

20.7 C

96 W/m

0.00 mm

17:30

20.7 C

1012.3 hpa

67 %

3.2 km/h aus 117

9.7 km/h aus S

14.4 C

20.7 C

20.7 C

20.7 C

83 W/m

0.00 mm

17:35

20.7 C

1012.3 hpa

67 %

0.0 km/h aus 113

0.0 km/h aus ---

14.4 C

20.7 C

20.7 C

20.7 C

80 W/m

0.00 mm

17:40

20.7 C

1012.3 hpa

67 %

1.6 km/h aus 117

11.3 km/h aus S

14.3 C

20.7 C

20.7 C

20.7 C

78 W/m

0.00 mm

17:45

20.7 C

1012.3 hpa

67 %

3.2 km/h aus 117

11.3 km/h aus NW

14.4 C

20.7 C

20.7 C

20.7 C

79 W/m

0.00 mm

17:50

20.7 C

1012.3 hpa

67 %

1.6 km/h aus 118

9.7 km/h aus NW

14.4 C

20.7 C

20.7 C

20.7 C

76 W/m

0.00 mm

17:55

20.7 C

1012.3 hpa

67 %

1.6 km/h aus 115

8.0 km/h aus WNW

14.3 C

20.7 C

20.7 C

20.7 C

88 W/m

0.00 mm

18:00

20.7 C

1012.3 hpa

67 %

0.0 km/h aus 116

6.4 km/h aus NW

14.3 C

20.7 C

20.7 C

20.7 C

97 W/m

0.00 mm

18:05

20.7 C

1012.3 hpa

67 %

0.0 km/h aus 117

0.0 km/h aus ---

14.3 C

20.7 C

20.7 C

20.7 C

109 W/m

0.00 mm

18:10

20.7 C

1012.3 hpa

67 %

3.2 km/h aus 117

11.3 km/h aus S

14.3 C

20.7 C

20.7 C

20.7 C

106 W/m

0.00 mm

18:15

20.7 C

1012.3 hpa

67 %

0.0 km/h aus 115

6.4 km/h aus WNW

14.4 C

20.7 C

20.7 C

20.7 C

103 W/m

0.00 mm

18:20

20.7 C

1012.3 hpa

67 %

0.0 km/h aus 115

8.0 km/h aus WNW

14.4 C

20.7 C

20.7 C

20.7 C

92 W/m

0.00 mm

18:25

20.8 C

1012.3 hpa

66 %

3.2 km/h aus 117

11.3 km/h aus WNW

14.2 C

20.7 C

20.8 C

20.7 C

83 W/m

0.00 mm

18:30

20.8 C

1012.2 hpa

66 %

4.8 km/h aus 116

11.3 km/h aus WNW

14.2 C

20.7 C

20.8 C

20.7 C

74 W/m

0.00 mm

18:35

20.8 C

1012.2 hpa

66 %

1.6 km/h aus 117

9.7 km/h aus WNW

14.2 C

20.7 C

20.8 C

20.7 C

71 W/m

0.00 mm

18:40

20.7 C

1012.2 hpa

66 %

4.8 km/h aus 113

11.3 km/h aus S

14.1 C

20.7 C

20.7 C

20.7 C

68 W/m

0.00 mm

18:45

20.7 C

1012.2 hpa

65 %

4.8 km/h aus 117

12.9 km/h aus NW

13.9 C

20.6 C

20.7 C

20.6 C

63 W/m

0.00 mm

18:50

20.7 C

1012.2 hpa

65 %

4.8 km/h aus 117

9.7 km/h aus WNW

13.9 C

20.6 C

20.7 C

20.6 C

55 W/m

0.00 mm

18:55

20.7 C

1012.2 hpa

65 %

3.2 km/h aus 118

9.7 km/h aus WNW

13.9 C

20.6 C

20.7 C

20.6 C

58 W/m

0.00 mm

19:00

20.6 C

1012.2 hpa

66 %

3.2 km/h aus 114

8.0 km/h aus NNW

14.0 C

20.6 C

20.6 C

20.6 C

63 W/m

0.00 mm

19:05

20.6 C

1012.2 hpa

66 %

4.8 km/h aus 116

11.3 km/h aus NW

14.0 C

20.6 C

20.6 C

20.6 C

61 W/m

0.00 mm

19:10

20.6 C

1012.2 hpa

65 %

3.2 km/h aus 116

9.7 km/h aus WNW

13.7 C

20.5 C

20.6 C

20.5 C

45 W/m

0.00 mm

19:15

20.6 C

1012.3 hpa

65 %

1.6 km/h aus 117

8.0 km/h aus S

13.7 C

20.5 C

20.6 C

20.5 C

38 W/m

0.00 mm

19:20

20.6 C

1012.3 hpa

66 %

3.2 km/h aus 112

11.3 km/h aus NW

14.0 C

20.6 C

20.6 C

20.6 C

34 W/m

0.00 mm

19:25

20.5 C

1012.3 hpa

66 %

1.6 km/h aus 115

8.0 km/h aus NW

13.9 C

20.5 C

20.5 C

20.5 C

29 W/m

0.00 mm

19:30

20.4 C

1012.5 hpa

66 %

0.0 km/h aus 117

0.0 km/h aus ---

13.9 C

20.5 C

20.4 C

20.5 C

25 W/m

0.00 mm

19:35

20.4 C

1012.5 hpa

66 %

3.2 km/h aus 117

6.4 km/h aus WNW

13.9 C

20.5 C

20.4 C

20.5 C

21 W/m

0.00 mm

19:40

20.4 C

1012.5 hpa

67 %

1.6 km/h aus 116

6.4 km/h aus WNW

14.1 C

20.5 C

20.4 C

20.5 C

18 W/m

0.00 mm

19:45

20.4 C

1012.7 hpa

66 %

0.0 km/h aus 115

4.8 km/h aus S

13.8 C

20.4 C

20.4 C

20.4 C

18 W/m

0.00 mm

19:50

20.3 C

1012.7 hpa

66 %

1.6 km/h aus 117

9.7 km/h aus NNW

13.8 C

20.4 C

20.3 C

20.4 C

15 W/m

0.00 mm

19:55

20.3 C

1012.7 hpa

66 %

1.6 km/h aus 117

8.0 km/h aus NNW

13.7 C

20.3 C

20.3 C

20.3 C

12 W/m

0.00 mm

20:00

20.2 C

1012.7 hpa

66 %

4.8 km/h aus 118

14.5 km/h aus N

13.6 C

20.3 C

20.2 C

20.3 C

10 W/m

0.00 mm

20:05

20.1 C

1012.7 hpa

66 %

6.4 km/h aus 114

14.5 km/h aus S

13.5 C

20.2 C

20.1 C

20.2 C

7 W/m

0.00 mm

20:10

20.0 C

1012.7 hpa

67 %

1.6 km/h aus 116

8.0 km/h aus S

13.7 C

20.2 C

20.0 C

20.2 C

3 W/m

0.00 mm

20:15

19.9 C

1012.9 hpa

67 %

1.6 km/h aus 117

9.7 km/h aus WNW

13.6 C

20.1 C

19.9 C

20.1 C

0 W/m

0.00 mm

20:20

19.8 C

1012.9 hpa

66 %

6.4 km/h aus 117

17.7 km/h aus S

13.2 C

19.9 C

19.8 C

19.9 C

0 W/m

0.00 mm

20:25

19.7 C

1012.9 hpa

66 %

8.0 km/h aus 115

19.3 km/h aus S

13.2 C

19.8 C

19.7 C

19.8 C

0 W/m

0.00 mm

20:30

19.6 C

1013.2 hpa

66 %

4.8 km/h aus 115

17.7 km/h aus NW

13.1 C

19.7 C

19.6 C

19.7 C

0 W/m

0.00 mm

20:35

19.6 C

1013.2 hpa

66 %

3.2 km/h aus 117

14.5 km/h aus S

13.0 C

19.6 C

19.6 C

19.6 C

0 W/m

0.00 mm

20:40

19.5 C

1013.2 hpa

66 %

3.2 km/h aus 115

12.9 km/h aus NW

13.0 C

19.6 C

19.5 C

19.6 C

0 W/m

0.00 mm

20:45

19.4 C

1013.2 hpa

66 %

3.2 km/h aus 117

11.3 km/h aus NNW

12.9 C

19.5 C

19.4 C

19.5 C

0 W/m

0.00 mm

20:50

19.4 C

1013.2 hpa

66 %

6.4 km/h aus 114

16.1 km/h aus NW

12.9 C

19.4 C

19.4 C

19.4 C

0 W/m

0.00 mm

20:55

19.3 C

1013.2 hpa

66 %

6.4 km/h aus 116

19.3 km/h aus NNW

12.8 C

19.3 C

19.3 C

19.3 C

0 W/m

0.00 mm

21:00

19.2 C

1013.3 hpa

66 %

8.0 km/h aus 118

19.3 km/h aus S

12.7 C

19.2 C

19.2 C

19.2 C

0 W/m

0.00 mm

21:05

19.1 C

1013.3 hpa

66 %

12.9 km/h aus 116

24.1 km/h aus NNW

12.6 C

18.7 C

18.7 C

19.0 C

0 W/m

0.00 mm

21:10

19.0 C

1013.3 hpa

66 %

4.8 km/h aus 115

17.7 km/h aus NNW

12.5 C

18.9 C

19.0 C

18.9 C

0 W/m

0.00 mm

21:15

18.9 C

1013.6 hpa

66 %

11.3 km/h aus 116

24.1 km/h aus S

12.4 C

18.8 C

18.9 C

18.8 C

0 W/m

0.00 mm

21:20

18.8 C

1013.6 hpa

67 %

8.0 km/h aus 117

20.9 km/h aus S

12.6 C

18.8 C

18.8 C

18.8 C

0 W/m

0.00 mm

21:25

18.7 C

1013.6 hpa

67 %

6.4 km/h aus 117

19.3 km/h aus NNW

12.5 C

18.7 C

18.7 C

18.7 C

0 W/m

0.00 mm

21:30

18.7 C

1013.7 hpa

67 %

9.7 km/h aus 114

20.9 km/h aus S

12.4 C

18.6 C

18.7 C

18.6 C

0 W/m

0.00 mm

21:35

18.5 C

1013.7 hpa

67 %

6.4 km/h aus 113

19.3 km/h aus NW

12.3 C

18.4 C

18.5 C

18.4 C

0 W/m

0.00 mm

21:40

18.4 C

1013.7 hpa

68 %

6.4 km/h aus 117

19.3 km/h aus NNW

12.4 C

18.3 C

18.4 C

18.3 C

0 W/m

0.00 mm

21:45

18.3 C

1013.8 hpa

68 %

1.6 km/h aus 117

11.3 km/h aus NNW

12.3 C

18.2 C

18.3 C

18.2 C

0 W/m

0.00 mm

21:50

18.2 C

1013.8 hpa

68 %

1.6 km/h aus 117

8.0 km/h aus WNW

12.2 C

18.1 C

18.2 C

18.1 C

0 W/m

0.00 mm

21:55

18.1 C

1013.8 hpa

69 %

1.6 km/h aus 115

8.0 km/h aus NNW

12.3 C

17.9 C

18.1 C

17.9 C

0 W/m

0.00 mm

22:00

18.0 C

1013.8 hpa

69 %

1.6 km/h aus 116

9.7 km/h aus NW

12.2 C

17.9 C

18.0 C

17.9 C

0 W/m

0.00 mm

22:05

17.8 C

1013.8 hpa

69 %

0.0 km/h aus 116

4.8 km/h aus WNW

12.1 C

17.7 C

17.8 C

17.7 C

0 W/m

0.00 mm

22:10

17.7 C

1013.8 hpa

69 %

0.0 km/h aus 117

0.0 km/h aus ---

12.0 C

17.6 C

17.7 C

17.6 C

0 W/m

0.00 mm

22:15

17.6 C

1014.1 hpa

69 %

1.6 km/h aus 116

8.0 km/h aus NW

11.9 C

17.4 C

17.6 C

17.4 C

0 W/m

0.00 mm

22:20

17.5 C

1014.1 hpa

70 %

0.0 km/h aus 113

0.0 km/h aus ---

12.0 C

17.4 C

17.5 C

17.4 C

0 W/m

0.00 mm

22:25

17.4 C

1014.1 hpa

70 %

0.0 km/h aus 117

8.0 km/h aus WNW

11.9 C

17.2 C

17.4 C

17.2 C

0 W/m

0.00 mm

22:30

17.2 C

1014.2 hpa

70 %

0.0 km/h aus 117

6.4 km/h aus WNW

11.7 C

17.1 C

17.2 C

17.1 C

0 W/m

0.00 mm

22:35

17.1 C

1014.2 hpa

70 %

0.0 km/h aus 116

0.0 km/h aus ---

11.6 C

16.9 C

17.1 C

16.9 C

0 W/m

0.00 mm

22:40

17.0 C

1014.2 hpa

70 %

0.0 km/h aus 114

0.0 km/h aus ---

11.5 C

16.8 C

17.0 C

16.8 C

0 W/m

0.00 mm

22:45

16.8 C

1014.2 hpa

71 %

0.0 km/h aus 114

0.0 km/h aus ---

11.5 C

16.6 C

16.8 C

16.6 C

0 W/m

0.00 mm

22:50

16.7 C

1014.2 hpa

71 %

0.0 km/h aus 116

6.4 km/h aus WNW

11.4 C

16.5 C

16.7 C

16.5 C

0 W/m

0.00 mm

22:55

16.6 C

1014.2 hpa

72 %

1.6 km/h aus 114

9.7 km/h aus WNW

11.5 C

16.3 C

16.6 C

16.3 C

0 W/m

0.00 mm

23:00

16.4 C

1014.3 hpa

72 %

0.0 km/h aus 116

6.4 km/h aus WNW

11.4 C

16.2 C

16.4 C

16.2 C

0 W/m

0.00 mm

23:05

16.3 C

1014.3 hpa

73 %

0.0 km/h aus 115

4.8 km/h aus WNW

11.5 C

16.1 C

16.3 C

16.1 C

0 W/m

0.00 mm

23:10

16.2 C

1014.3 hpa

73 %

0.0 km/h aus 117

0.0 km/h aus ---

11.4 C

16.0 C

16.2 C

16.0 C

0 W/m

0.00 mm

23:15

16.2 C

1014.3 hpa

73 %

0.0 km/h aus 116

0.0 km/h aus ---

11.3 C

15.9 C

16.2 C

15.9 C

0 W/m

0.00 mm

23:20

16.1 C

1014.3 hpa

73 %

0.0 km/h aus 116

0.0 km/h aus ---

11.2 C

15.8 C

16.1 C

15.8 C

0 W/m

0.00 mm

23:25

15.9 C

1014.3 hpa

73 %

0.0 km/h aus 116

0.0 km/h aus ---

11.1 C

15.7 C

15.9 C

15.7 C

0 W/m

0.00 mm

23:30

15.9 C

1014.3 hpa

74 %

0.0 km/h aus 114

0.0 km/h aus ---

11.3 C

15.7 C

15.9 C

15.7 C

0 W/m

0.00 mm

23:35

15.8 C

1014.3 hpa

74 %

0.0 km/h aus 117

0.0 km/h aus ---

11.2 C

15.6 C

15.8 C

15.6 C

0 W/m

0.00 mm

23:40

15.7 C

1014.3 hpa

74 %

0.0 km/h aus 117

0.0 km/h aus ---

11.0 C

15.4 C

15.7 C

15.4 C

0 W/m

0.00 mm

23:45

15.6 C

1014.3 hpa

75 %

0.0 km/h aus 116

0.0 km/h aus ---

11.1 C

15.3 C

15.6 C

15.3 C

0 W/m

0.00 mm

23:50

15.5 C

1014.3 hpa

76 %

0.0 km/h aus 114

3.2 km/h aus WNW

11.3 C

15.3 C

15.5 C

15.3 C

0 W/m

0.00 mm

23:55

15.4 C

1014.3 hpa

76 %

0.0 km/h aus 115

0.0 km/h aus ---

11.2 C

15.2 C

15.4 C

15.2 C

0 W/m

0.00 mm